Other Public Products
Issued by NWS Charleston, SC

Current Version | Previous Version | Text Only | Print | Product List | Glossary Off
Versions: 1 2 3 4 5 6 7 8 9 10 11 12 13 14 15 16 17 18 19 20 21 22 23 24 25 26 27 28 29 30 31 32 33 34 35 36 37 38 39 40 41 42 43 44 45 46 47 48 49 50

000
FPUS82 KCHS 230826
OPUCHS

TEST...KCHS/KSAV Gateway Observations...TEST
National Weather Service Charleston SC
300 AM EST THU FEB 23 2017

NOTE: "fair" indicates few or no clouds below 12,000 feet with no
significant weather and/or obstructions to visibility.

SCZ050-WAZ558-NCZ071-TXZ119-213-PAZ071-DCZ001-FLZ074-172-MI076-
NYZ176-178-MAZ016-IL014-TNZ027-NJZ106-GAZ044-MD014-230900-
...Gateway Observations for Charleston International...

CITY           SKY/WX    TMP DP  RH WIND       PRES   REMARKS
Chas Airport   PTCLDY    60  57  89 NE8       29.83F
Seattle        CLOUDY    37  34  89 CALM      30.21S
Charlotte      CLOUDY    56  53  90 N3        29.91F
Dallas DFW     CLEAR     59  49  69 S7        29.65F
Dallas Love    CLEAR     61  46  57 SE9       29.66F
Philladelphia  FOG       46  46 100 SW7       29.90S VSB 1/4
Wash National  CLOUDY    54  53  97 S7        29.88F
Baltimore      CLOUDY    49  47  93 CALM      29.87F
Miami          MOCLDY    64  61  90 SW5       29.64S
Detroit        CLOUDY    54  53  97 S10       29.66F FOG
Newark         PTCLDY    46  41  82 S5        29.88F
Laguardia      PTCLDY    44  39  82 NE3       29.88F
J F K          PTCLDY    40  40 100 SE5       29.89F WCI  37
Boston Logan   MOCLDY    43  38  82 SW9       29.87F
Ft. Lauderdale PTCLDY    64  62  93 W6        29.62F
Chicago O`Hare CLEAR     55  49  80 SW10      29.65R
Chicago Midway CLEAR     57  50  77 W12       29.67R
Houston Bush   CLEAR     59  50  72 S5        29.76S
Houston Hobby  CLEAR     59  55  87 S5        29.76F
Nashville      CLEAR     54  52  93 S6        29.84S FOG
Atlanta        PTCLDY    56  55  97 E8        29.86F

$$

GAZ044-118-TXZ119-213-NCZ071-DCZ001-MDZ014-506-PAZ021-071-NJZ106-
NYZ176-178-MAZ106-OHZ011-021-055-MIZ076-KYZ091-ILZ014-INZ047-
MNZ060-ONZ431-230900-
...Gateway Observations for Savannah International...

CITY           SKY/WX    TMP DP  RH WIND       PRES   REMARKS
Savannah Arpt  PTCLDY    61  58  90 NE7       29.80S
Atlanta        PTCLDY    56  55  97 E8        29.86F
Charlotte      CLOUDY    56  53  90 N3        29.91F
Dallas DFW     CLEAR     59  49  69 S7        29.65F
Houston Bush   CLEAR     59  50  72 S5        29.76S
Wash National  CLOUDY    54  53  97 S7        29.88F
Wash Dulles    CLOUDY    54  51  90 S5        29.87F
Baltimore      CLOUDY    49  47  93 CALM      29.87F
Philadelphia   FOG       46  46 100 SW7       29.90S VSB 1/4
Newark         PTCLDY    46  41  82 S5        29.88F
Laguardia      PTCLDY    44  39  82 NE3       29.88F
J F K          PTCLDY    40  40 100 SE5       29.89F WCI  37
Boston         MOCLDY    43  38  82 SW9       29.87F
Pittsburg      MOCLDY    55  52  89 S6        29.81F
Akron          CLOUDY    55  52  89 S10       29.79S FOG
Cleveland      CLOUDY    58  52  80 S12       29.76F
Cincinnati     CLOUDY    57  55  93 S6        29.79R
Columbus       PTCLDY    52  52 100 S6        29.79S
Detroit        CLOUDY    54  53  97 S10       29.66F FOG
Chicago O`Hare CLEAR     55  49  80 SW10      29.65R
Minneapolis    CLOUDY    37  30  75 N15G23    29.85R WCI  28
Indianapolis   PTCLDY    54  52  93 S8        29.76R
Toronto Canada CLOUDY    46  46 100 SE7       29.66F

$$




USA.gov is the U.S. government's official web portal to all federal, state and local government web resources and services.